Location: Golden Pond Observatory
(36.7667°N, 88.0167°W)
Time: 13:59:57
(UTC-06:00)

ISS - Visible Passes

Search period start: 23 January 2018 00:00
Search period end: 02 February 2018 00:00
Orbit: 402 x 407 km, 51.6° (Epoch: 23 January)

Date Brightness Start Highest point End Pass type
(mag) Time Alt. Az. Time Alt. Az. Time Alt. Az.
23 Jan -2.4 19:01:53 10° SW 19:03:52 34° SW 19:03:52 34° SW visible
24 Jan -3.0 18:09:55 10° SSW 18:12:53 34° SE 18:14:09 24° E visible
24 Jan -0.2 19:46:43 10° W 19:46:50 11° W 19:46:50 11° W visible
25 Jan -2.8 18:53:52 10° WSW 18:56:57 40° NW 18:57:01 40° NNW visible
26 Jan -3.8 18:01:20 10° SW 18:04:35 83° NW 18:07:07 16° NE visible
27 Jan -1.7 18:46:25 10° W 18:48:53 20° NNW 18:49:47 18° N visible
28 Jan -2.4 17:53:24 10° W 17:56:22 32° NW 17:59:22 10° NNE visible
29 Jan -1.1 18:39:38 10° NW 18:40:56 12° NNW 18:42:14 10° N visible
30 Jan -1.5 17:46:01 10° WNW 17:48:16 17° NNW 17:50:32 10° NNE visible
